Hourly Weather Luka

Today, 18 May, Tuesday

Time Temperature Precipitation Wind Pressure Humidity
00:00 +17°C° 0.2 mm 2 mps 743 mmHg 96%
01:00 +17°C° 0.2 mm 3 mps 743 mmHg 96%
02:00 +17°C° 0 mm 3 mps 743 mmHg 96%
03:00 +17°C° 0.4 mm 3 mps 742 mmHg 96%
04:00 +17°C° 0.4 mm 3 mps 742 mmHg 96%
05:00 +18°C° 0.4 mm 3 mps 742 mmHg 96%
06:00 +18°C° 0.4 mm 3 mps 742 mmHg 94%
07:00 +19°C° 0.4 mm 3 mps 742 mmHg 92%
08:00 +20°C° 0 mm 4 mps 742 mmHg 91%
09:00 +22°C° 0 mm 4 mps 743 mmHg 80%
10:00 +23°C° 0 mm 5 mps 743 mmHg 70%
11:00 +26°C° 0 mm 5 mps 743 mmHg 59%
12:00 +26°C° 0 mm 5 mps 743 mmHg 56%
13:00 +27°C° 0 mm 5 mps 743 mmHg 52%
14:00 +28°C° 0 mm 4 mps 743 mmHg 49%
15:00 +26°C° 0.2 mm 4 mps 742 mmHg 58%
16:00 +25°C° 0.2 mm 3 mps 742 mmHg 67%
17:00 +23°C° 0.2 mm 2 mps 742 mmHg 76%
18:00 +21°C° 0.1 mm 2 mps 742 mmHg 80%
19:00 +20°C° 0.1 mm 2 mps 742 mmHg 83%
20:00 +19°C° 0.1 mm 2 mps 742 mmHg 87%
21:00 +18°C° 0.3 mm 2 mps 742 mmHg 89%
22:00 +17°C° 0.3 mm 2 mps 742 mmHg 91%
23:00 +17°C° 0.3 mm 2 mps 742 mmHg 93%

Tomorrow, 19 May, Wednesday

Time Temperature Precipitation Wind Pressure Humidity
00:00 +17°C° 0.1 mm 2 mps 741 mmHg 93%
01:00 +17°C° 0.1 mm 3 mps 741 mmHg 92%
02:00 +17°C° 0.1 mm 4 mps 741 mmHg 92%
03:00 +17°C° 0 mm 4 mps 741 mmHg 92%
04:00 +15°C° 0 mm 4 mps 741 mmHg 93%
05:00 +16°C° 0 mm 3 mps 741 mmHg 93%
06:00 +15°C° 0.1 mm 4 mps 741 mmHg 91%
07:00 +17°C° 0.1 mm 4 mps 741 mmHg 89%
08:00 +17°C° 0.1 mm 4 mps 741 mmHg 87%
09:00 +18°C° 0.1 mm 4 mps 742 mmHg 81%
10:00 +19°C° 0.1 mm 5 mps 742 mmHg 75%
11:00 +21°C° 0.1 mm 5 mps 742 mmHg 69%
12:00 +21°C° 0.8 mm 5 mps 742 mmHg 72%
13:00 +21°C° 0.8 mm 5 mps 742 mmHg 75%
14:00 +21°C° 0.8 mm 5 mps 743 mmHg 78%
15:00 +20°C° 0.5 mm 4 mps 743 mmHg 79%
16:00 +20°C° 0.5 mm 4 mps 743 mmHg 81%
17:00 +19°C° 0.5 mm 4 mps 743 mmHg 82%
18:00 +18°C° 0.1 mm 3 mps 743 mmHg 86%
19:00 +17°C° 0.1 mm 2 mps 743 mmHg 90%
20:00 +16°C° 0.1 mm 2 mps 744 mmHg 94%
21:00 +15°C° 0 mm 2 mps 744 mmHg 95%
22:00 +15°C° 0 mm 1 mps 744 mmHg 96%
23:00 +14°C° 0 mm 1 mps 744 mmHg 97%

Day after tomorrow, 20 May, Thursday

Time Temperature Precipitation Wind Pressure Humidity
00:00 +14°C° 0 mm 1 mps 744 mmHg 97%
01:00 +13°C° 0 mm 1 mps 744 mmHg 97%
02:00 +13°C° 0 mm 2 mps 744 mmHg 97%
03:00 +13°C° 0.3 mm 2 mps 744 mmHg 97%
04:00 +12°C° 0.3 mm 2 mps 744 mmHg 97%
05:00 +12°C° 0.3 mm 2 mps 744 mmHg 97%
06:00 +11°C° 0.4 mm 3 mps 744 mmHg 97%
07:00 +10°C° 0.4 mm 3 mps 744 mmHg 97%
08:00 +10°C° 0.4 mm 3 mps 744 mmHg 97%
09:00 +10°C° 2 mm 3 mps 743 mmHg 97%
10:00 +10°C° 2 mm 3 mps 743 mmHg 97%
11:00 +10°C° 2 mm 3 mps 743 mmHg 97%
12:00 +10°C° 1.6 mm 3 mps 743 mmHg 97%
13:00 +10°C° 1.6 mm 3 mps 743 mmHg 97%
14:00 +10°C° 1.6 mm 4 mps 743 mmHg 97%
15:00 +10°C° 1.1 mm 4 mps 744 mmHg 97%
16:00 +10°C° 1.1 mm 4 mps 744 mmHg 97%
17:00 +10°C° 1.1 mm 4 mps 744 mmHg 97%
18:00 +10°C° 1.7 mm 4 mps 744 mmHg 97%
19:00 +10°C° 1.7 mm 4 mps 745 mmHg 97%
20:00 +9°C° 1.7 mm 3 mps 745 mmHg 97%
21:00 +9°C° 0.1 mm 3 mps 746 mmHg 97%
22:00 +9°C° 0.1 mm 3 mps 746 mmHg 97%
23:00 +8°C° 0.1 mm 3 mps 747 mmHg 96%

21 May, Friday

Time Temperature Precipitation Wind Pressure Humidity
00:00 +8°C° 0 mm 2 mps 747 mmHg 97%
01:00 +7°C° 0 mm 2 mps 748 mmHg 97%
02:00 +7°C° 0 mm 2 mps 748 mmHg 97%
03:00 +7°C° 0 mm 2 mps 749 mmHg 97%
04:00 +8°C° 0 mm 1 mps 749 mmHg 96%
05:00 +8°C° 0 mm 1 mps 749 mmHg 96%
06:00 +8°C° 0 mm 2 mps 750 mmHg 89%
07:00 +10°C° 0 mm 2 mps 750 mmHg 82%
08:00 +12°C° 0 mm 2 mps 751 mmHg 75%
09:00 +13°C° 0 mm 3 mps 751 mmHg 67%
10:00 +14°C° 0 mm 3 mps 751 mmHg 59%
11:00 +17°C° 0 mm 4 mps 751 mmHg 51%
12:00 +17°C° 0 mm 4 mps 751 mmHg 47%
13:00 +17°C° 0 mm 4 mps 751 mmHg 44%
14:00 +18°C° 0 mm 4 mps 751 mmHg 40%
15:00 +17°C° 0 mm 4 mps 751 mmHg 43%
16:00 +17°C° 0 mm 3 mps 751 mmHg 47%
17:00 +17°C° 0 mm 3 mps 751 mmHg 50%
18:00 +15°C° 0 mm 2 mps 751 mmHg 59%
19:00 +13°C° 0 mm 2 mps 752 mmHg 68%
20:00 +11°C° 0 mm 1 mps 752 mmHg 78%
21:00 +10°C° 0 mm 1 mps 752 mmHg 79%
22:00 +9°C° 0 mm 1 mps 752 mmHg 80%
23:00 +8°C° 0 mm 1 mps 753 mmHg 82%

22 May, Saturday

Time Temperature Precipitation Wind Pressure Humidity
00:00 +8°C° 0 mm 1 mps 753 mmHg 83%
01:00 +7°C° 0 mm 1 mps 753 mmHg 84%
02:00 +7°C° 0 mm 1 mps 753 mmHg 85%
03:00 +7°C° 0 mm 1 mps 753 mmHg 83%
04:00 +8°C° 0 mm 1 mps 753 mmHg 82%
05:00 +7°C° 0 mm 2 mps 753 mmHg 81%
06:00 +9°C° 0 mm 2 mps 753 mmHg 74%
07:00 +12°C° 0 mm 2 mps 753 mmHg 68%
08:00 +13°C° 0 mm 3 mps 753 mmHg 61%
09:00 +14°C° 0 mm 3 mps 753 mmHg 56%
10:00 +17°C° 0 mm 3 mps 753 mmHg 50%
11:00 +18°C° 0 mm 4 mps 753 mmHg 45%
12:00 +19°C° 0 mm 4 mps 752 mmHg 44%
13:00 +19°C° 0 mm 4 mps 752 mmHg 42%
14:00 +20°C° 0 mm 4 mps 752 mmHg 41%
15:00 +20°C° 0 mm 4 mps 752 mmHg 44%
16:00 +19°C° 0 mm 3 mps 752 mmHg 47%
17:00 +19°C° 0 mm 3 mps 751 mmHg 50%
18:00 +17°C° 0 mm 3 mps 751 mmHg 59%
19:00 +15°C° 0 mm 2 mps 751 mmHg 68%
20:00 +13°C° 0 mm 2 mps 751 mmHg 77%
21:00 +13°C° 0 mm 2 mps 751 mmHg 79%
22:00 +12°C° 0 mm 2 mps 751 mmHg 81%
23:00 +10°C° 0 mm 2 mps 751 mmHg 83%

23 May, Sunday

Time Temperature Precipitation Wind Pressure Humidity
00:00 +10°C° 0 mm 2 mps 751 mmHg 85%
01:00 +10°C° 0 mm 3 mps 750 mmHg 86%
02:00 +10°C° 0 mm 3 mps 750 mmHg 88%
03:00 +10°C° 0 mm 3 mps 750 mmHg 89%
04:00 +11°C° 0 mm 3 mps 749 mmHg 90%
05:00 +11°C° 0 mm 3 mps 749 mmHg 90%
06:00 +12°C° 0 mm 4 mps 748 mmHg 86%
07:00 +13°C° 0 mm 4 mps 748 mmHg 81%
08:00 +15°C° 0 mm 5 mps 747 mmHg 76%
09:00 +15°C° 0 mm 5 mps 747 mmHg 75%
10:00 +15°C° 0 mm 4 mps 746 mmHg 75%
11:00 +17°C° 0 mm 4 mps 746 mmHg 74%
12:00 +17°C° 0.1 mm 4 mps 745 mmHg 75%
13:00 +18°C° 0.1 mm 4 mps 745 mmHg 75%
14:00 +18°C° 0.1 mm 4 mps 744 mmHg 75%
15:00 +18°C° 0.9 mm 4 mps 744 mmHg 80%
16:00 +17°C° 0.9 mm 4 mps 743 mmHg 85%
17:00 +15°C° 0.9 mm 4 mps 743 mmHg 90%
18:00 +14°C° 0.9 mm 4 mps 744 mmHg 93%
19:00 +12°C° 0.9 mm 3 mps 745 mmHg 95%
20:00 +12°C° 0.9 mm 2 mps 745 mmHg 97%
21:00 +12°C° 0.1 mm 2 mps 746 mmHg 97%
22:00 +12°C° 0.1 mm 2 mps 746 mmHg 97%
23:00 +12°C° 0.1 mm 2 mps 746 mmHg 97%
Show more

We Need Your Consent

Meteoprog and our Service Providers may store and access personal data such as cookies, device identifiers or other similar technologies on your device and process such data to personalise content and ads, as well as provide social media features and to analyse the traffic.

  • Store and/or access information on your device

    Cookies, device identifiers or other information can be stored or accessed on your device for the purposes indicated above.

  • Personalised ads and content, ad and content measurement, audience insights, and products development

    Ads and content can be personalised based on a profile. More data can be added to better personalise ads and content. Ad and content performance can be measured. Insights about the audience who saw the ads and content can be derived. Such data can be used to develop or improve user’s experience, systems and software.

By clicking ‘I Agree’ you will allow the use of indicated cookies, device identifiers, web beacons or other similar technologies. Your settings can be changed in the browser on your device.

For certain purposes, legitimate interests may be relied on, rather than consent. You can read more about this in our Privacy and Cookie Policy.